Unicom:                    122.8

AWOS:                  118.275

Elevation           1458’ MSL

TPA:                   2500’ MSL

06/24:         5003’ L   75’ W

PAPI:       06/Left     24/Left

(Operate lights on unicom freq.)

Traffic Pattern: Left

Beacon: Sunset to Sunrise

Windsock: yes, lighted

Segmented Circle: No

 

Cleveland Center: 126.72/291.65

FSS: Altoona

[Source: ADDS]
METAR
KFKL 210756Z AUTO 23006KT 9SM SCT090 BKN100 23/22 A2994 RMK AO2 SLP124 T02330222 =
KFKL 210839Z 2109/2206 28004KT P6SM BKN090 TEMPO 2109/2110 2SM -TSRA BKN035CB FM211600 28005KT P6SM BKN035 FM212300 32004KT P6SM SCT050
TAF
KFKL 210839Z 2109/2206 28004KT P6SM BKN090 TEMPO 2109/2110 2SM -TSRA BKN035CB FM211600 28005KT P6SM BKN035 FM212300 32004KT P6SM SCT050 =
[Source: ADDS]
METAR
KDUJ 210753Z AUTO 24007KT 8SM CLR 21/21 A2993 RMK AO2 SLP119 T02110206 $ =
KDUJ 210520Z 2106/2206 28004KT P6SM BKN250 TEMPO 2109/2112 3SM BR SCT008 FM211600 28005KT P6SM BKN035 FM212300 30006KT P6SM SCT040
TAF
KDUJ 210520Z 2106/2206 28004KT P6SM BKN250 TEMPO 2109/2112 3SM BR SCT008 FM211600 28005KT P6SM BKN035 FM212300 30006KT P6SM SCT040 =

Welcome to Clarion County Airport.

We look forward to serving all of your aviation needs.


Clarion County Airport is a General Aviation, Business Class airport serving the Clarion County Area in Central Western Pennsylvania.  Our 5,003' asphalt runway and gps approaches are capable of serving most of the general aviation fleet in most weather conditions.


If you are planning a fuel stop while flying in Western Pennsylvania, consider paying us a visit. Our prices are some of the lowest in the state Check prices here ----> www.airnav.com/fuel and enter identifier KAXQ or see current prices below. We can have you fueled and taxiing out to the runway in about 10 minutes. Our current hours of operation are Monday- Saturday 8:00AM-4:00PM. The FBO building will be closed on Sundays until March 1st, 2019. Holiday closures are Christmas Day and Thanksgiving. If you require use of the facilities during the holidays or after hours please call ahead and someone will be there to assist you.


- Airport Manager -  


                             CURRENT FUEL PRICES AS OF 1/4/19      JET-A w/additive    $3.79               100LL     $4.65 CC   Cash $4.52


                              Self Service fueling available 24/7, credit card reader enabled. Center point fueling available upon request.

                                                           For after hours fueling assistance please contact 814-282-6001.